Orbital Elements at Epoch 2459000.5 (2020-May-31.0) TDB
Reference: JPL 18 (heliocentric ecliptic J2000)
Element | Value | Uncertainty (1-sigma) | Units |
e | .09521163748275853 | 3.9795e-08 | |
a | 3.204038425711339 | 3.7556e-08 | au |
q | 2.898976680641683 | 1.3911e-07 | au |
i | 13.44833127224176 | 5.405e-06 | deg |
node | 225.5171685626341 | 1.8865e-05 | deg |
peri | 95.30049080105985 | 3.6219e-05 | deg |
M | 306.2230894250814 | 3.0085e-05 | deg |
tp | 2459313.423622263197 (2021-Apr-08.92362226) | 0.00017641 | TDB |
period | 2094.811747465679 5.74 | 3.6831e-05 1.008e-07 | d yr |
n | .1718531512130057 | 3.0216e-09 | deg/d |
Q | 3.509100170780996 | 4.1132e-08 | au |
|
| | Orbit Determination Parameters
Additional Information
|